DW7126 Lourinha PT current weather conditions

sailwx.info

Wind from 317 at 0 knots gusting 4

Air temperature 12.8° C
Dewpoint 11.8° C

Last reported at 2015-Feb-28 23:50 UTC.
Time now 2015-Mar-01 00:40 UTC

Location: N 39°14' W 009°18'.
View on Google Maps.

See reports from other nearby stations

  
Tides and Currents Weather Stations Pressure Air Temp Water Temp Dewpoint Dewpoint Depression Visibility Wind Speed Wind Dir Waves Ship Positions
date/time (UTC)wind fromknots sea level pressurealtimeterstation pressurevisibilityair tempwater tempwave heightnotes
2015-Feb-28 23:50 317 0 gusting 4 12.8
2015-Feb-28 23:45 319 12.8
2015-Feb-28 23:40 281 12.8
2015-Feb-28 23:35 281 1 gusting 4 12.8
2015-Feb-28 23:30 293 12.8
2015-Feb-28 23:25 323 12.8
2015-Feb-28 23:20 325 0 gusting 3 12.8
2015-Feb-28 23:15 329 12.8
2015-Feb-28 23:10 309 1 gusting 4 12.8
2015-Feb-28 23:05 290 12.8
2015-Feb-28 23:00 291 12.8
2015-Feb-28 22:55 291 3 gusting 5 12.8
2015-Feb-28 22:50 311 0 gusting 5 12.8
2015-Feb-28 22:45 294 0 gusting 5 12.8
2015-Feb-28 22:40 315 12.8
2015-Feb-28 22:35 315 12.8
2015-Feb-28 22:30 317 12.8
2015-Feb-28 22:25 319 2 gusting 7 12.8
2015-Feb-28 22:20 323 0 gusting 9 12.8
2015-Feb-28 22:15 313 5 gusting 9 12.8
2015-Feb-28 22:10 330 2 gusting 5 12.8
2015-Feb-28 22:05 344 2 gusting 6 12.8
2015-Feb-28 22:00 346 1 gusting 6 12.8
2015-Feb-28 21:55 339 2 gusting 5 12.8
2015-Feb-28 21:50 338 12.8
2015-Feb-28 21:45 319 12.8
2015-Feb-28 21:40 360 12.8
2015-Feb-28 21:35 009 12.8
2015-Feb-28 21:30 011 0 gusting 5 12.8
2015-Feb-28 21:25 014 1 gusting 5 12.8
2015-Feb-28 21:20 010 1 gusting 6 12.8
2015-Feb-28 21:15 019 0 gusting 9 12.8
2015-Feb-28 21:10 316 1 gusting 6 12.8
2015-Feb-28 21:05 022 3 gusting 6 13.3
2015-Feb-28 21:00 347 0 gusting 7 13.3
2015-Feb-28 20:55 343 3 gusting 8 13.3
2015-Feb-28 20:50 012 5 gusting 8 13.3
2015-Feb-28 20:45 360 1 gusting 7 13.3
2015-Feb-28 20:40 347 4 gusting 9 13.3
2015-Feb-28 20:35 355 0 gusting 6 13.3
2015-Feb-28 20:30 300 2 gusting 6 12.8
2015-Feb-28 20:25 325 1 gusting 4 12.8
2015-Feb-28 20:20 317 0 gusting 5 12.8
2015-Feb-28 20:15 298 2 gusting 5 12.8
2015-Feb-28 20:10 333 12.8
2015-Feb-28 20:05 335 12.8
2015-Feb-28 20:00 335 12.8
2015-Feb-28 19:55 335 12.8
2015-Feb-28 19:50 336 2 gusting 5 12.8
2015-Feb-28 19:45 355 0 gusting 5 12.8
2015-Feb-28 19:40 348 1 gusting 5 12.8
2015-Feb-28 19:35 338 2 gusting 6 12.8
2015-Feb-28 19:30 010 3 gusting 6 12.8
2015-Feb-28 19:25 347 2 gusting 6 12.8
2015-Feb-28 19:20 355 1 gusting 5 12.8
2015-Feb-28 19:15 346 0 gusting 5 12.8
2015-Feb-28 19:10 339 1 gusting 6 12.8
2015-Feb-28 19:05 338 3 gusting 6 12.8
2015-Feb-28 19:00 333 0 gusting 4 12.8
2015-Feb-28 18:55 329 0 gusting 5 12.8
2015-Feb-28 18:50 322 3 gusting 5 12.8
2015-Feb-28 18:45 330 0 gusting 5 12.8
2015-Feb-28 18:40 327 3 gusting 5 12.8
2015-Feb-28 18:35 325 2 gusting 5 12.8
2015-Feb-28 18:30 335 2 gusting 5 12.8
2015-Feb-28 18:25 340 3 gusting 5 12.8
2015-Feb-28 18:20 327 0 gusting 4 12.8
2015-Feb-28 18:15 332 0 gusting 4 13.3
2015-Feb-28 18:10 323 0 gusting 4 13.3
2015-Feb-28 18:05 322 0 gusting 5 13.3
2015-Feb-28 18:00 329 0 gusting 6 13.3
2015-Feb-28 17:55 320 4 gusting 6 13.3
2015-Feb-28 17:50 306 2 gusting 6 13.3
2015-Feb-28 17:45 313 2 gusting 6 13.3
2015-Feb-28 17:40 323 0 gusting 7 13.3
2015-Feb-28 17:35 328 3 gusting 7 13.3
2015-Feb-28 17:30 333 6 gusting 7 13.3
2015-Feb-28 17:25 339 4 gusting 7 13.3
2015-Feb-28 17:20 315 4 gusting 7 13.3
2015-Feb-28 17:15 340 6 gusting 7 13.3
2015-Feb-28 17:10 340 2 gusting 9 13.3
2015-Feb-28 17:05 340 6 gusting 7 13.3
2015-Feb-28 17:00 340 2 gusting 6 13.3
2015-Feb-28 16:55 360 2 gusting 6 13.3
2015-Feb-28 16:50 347 5 gusting 7 13.3
2015-Feb-28 16:45 322 6 gusting 7 13.9
2015-Feb-28 16:40 339 3 gusting 7 13.9
2015-Feb-28 16:35 338 4 gusting 7 13.3
2015-Feb-28 16:30 327 4 gusting 8 13.3
2015-Feb-28 16:25 323 6 gusting 8 13.3
2015-Feb-28 16:20 318 5 gusting 8 13.3
2015-Feb-28 16:15 317 5 gusting 7 13.9
2015-Feb-28 16:10 332 4 gusting 7 13.9
2015-Feb-28 16:05 327 2 gusting 6 13.9
2015-Feb-28 16:00 316 4 gusting 6 13.9
2015-Feb-28 15:55 346 4 gusting 8 13.9
2015-Feb-28 15:50 321 5 gusting 8 13.9
2015-Feb-28 15:45 304 6 gusting 10 13.9
2015-Feb-28 15:40 335 6 gusting 10 13.9
2015-Feb-28 15:35 331 4 gusting 8 13.9
2015-Feb-28 15:30 330 5 gusting 8 14.4
2015-Feb-28 15:25 308 3 gusting 8 14.4
2015-Feb-28 15:20 302 6 gusting 7 14.4
2015-Feb-28 15:15 313 4 gusting 9 14.4
2015-Feb-28 15:10 328 3 gusting 9 14.4
2015-Feb-28 15:05 309 3 gusting 10 14.4
2015-Feb-28 15:00 317 6 gusting 11 13.9
2015-Feb-28 14:55 327 6 gusting 11 13.9
2015-Feb-28 14:50 310 6 gusting 11 13.9
2015-Feb-28 14:45 311 6 gusting 10 13.9
2015-Feb-28 14:40 340 6 gusting 9 13.3
2015-Feb-28 14:35 338 4 gusting 9 13.3
2015-Feb-28 14:30 325 3 gusting 6 13.3
2015-Feb-28 14:25 343 2 gusting 7 13.3
2015-Feb-28 14:20 321 5 gusting 10 13.3
2015-Feb-28 14:15 347 7 gusting 10 13.3
2015-Feb-28 14:10 333 6 gusting 9 13.3
2015-Feb-28 14:05 327 1 gusting 7 13.3
2015-Feb-28 14:00 346 2 gusting 8 13.3
2015-Feb-28 13:55 336 5 gusting 8 13.3
2015-Feb-28 13:50 321 4 gusting 9 13.3
2015-Feb-28 13:45 327 4 gusting 8 13.3
2015-Feb-28 13:40 308 1 gusting 11 13.3
2015-Feb-28 13:35 325 6 gusting 11 13.3
2015-Feb-28 13:30 321 6 gusting 10 13.3
2015-Feb-28 13:25 331 6 gusting 8 13.9
2015-Feb-28 13:20 342 4 gusting 8 13.9
2015-Feb-28 13:15 310 5 gusting 9 13.9
2015-Feb-28 13:10 332 6 gusting 9 13.9
2015-Feb-28 13:05 321 3 gusting 9 13.9
2015-Feb-28 13:00 360 4 gusting 10 13.9
2015-Feb-28 12:55 360 6 gusting 10 13.9
2015-Feb-28 12:50 328 6 gusting 10 13.9
2015-Feb-28 12:45 339 6 gusting 10 14.4
2015-Feb-28 12:40 346 7 gusting 11 14.4
2015-Feb-28 12:35 345 7 gusting 11 14.4
2015-Feb-28 12:30 325 5 gusting 8 14.4
2015-Feb-28 12:25 011 5 gusting 10 14.4
2015-Feb-28 12:20 344 6 gusting 10 14.4
2015-Feb-28 12:15 005 6 gusting 9 14.4
2015-Feb-28 12:10 009 6 gusting 11 13.9
2015-Feb-28 12:05 348 6 gusting 12 13.9
2015-Feb-28 12:00 020 6 gusting 13 13.9
2015-Feb-28 11:55 351 7 gusting 13 13.9
2015-Feb-28 11:50 015 6 gusting 12 13.9
2015-Feb-28 11:45 355 5 gusting 9 13.9
2015-Feb-28 11:40 036 6 gusting 11 13.9
2015-Feb-28 11:35 034 6 gusting 13 13.9
2015-Feb-28 11:30 021 7 gusting 13 13.9
2015-Feb-28 11:25 355 5 gusting 12 13.9
2015-Feb-28 11:20 323 7 gusting 12 13.9
2015-Feb-28 11:15 028 4 gusting 13 13.3
2015-Feb-28 11:10 360 7 gusting 13 13.3
2015-Feb-28 11:05 340 6 gusting 13 13.3
2015-Feb-28 11:00 360 6 gusting 12 13.3
2015-Feb-28 10:55 346 6 gusting 13 13.3
2015-Feb-28 10:50 327 7 gusting 14 13.3
2015-Feb-28 10:45 348 9 gusting 14 13.3
2015-Feb-28 10:40 009 10 gusting 14 13.3
2015-Feb-28 10:35 328 6 gusting 14 13.3
2015-Feb-28 10:30 345 7 gusting 12 13.3
2015-Feb-28 10:25 343 6 gusting 16 13.3
2015-Feb-28 10:20 342 10 gusting 16 13.3
2015-Feb-28 10:15 327 6 gusting 15 13.3
2015-Feb-28 10:10 024 6 gusting 15 13.3
2015-Feb-28 10:05 344 6 gusting 14 13.3
2015-Feb-28 10:00 321 8 gusting 14 13.3
2015-Feb-28 09:55 325 7 gusting 13 13.3
2015-Feb-28 09:50 338 7 gusting 13 13.3
2015-Feb-28 09:45 005 7 gusting 13 13.3
2015-Feb-28 09:40 332 7 gusting 13 13.3
2015-Feb-28 09:35 344 8 gusting 13 13.3
2015-Feb-28 09:30 005 6 gusting 11 13.3
2015-Feb-28 09:25 347 7 gusting 11 13.3
2015-Feb-28 09:20 348 5 gusting 8 13.3
2015-Feb-28 09:15 334 5 gusting 8 13.3
2015-Feb-28 09:10 355 4 gusting 9 12.8
2015-Feb-28 09:05 355 5 gusting 9 12.8
2015-Feb-28 09:00 355 6 gusting 8 12.8
2015-Feb-28 08:55 355 5 gusting 8 12.8
2015-Feb-28 08:50 036 4 gusting 9 12.8
2015-Feb-28 08:45 011 5 gusting 9 12.8
2015-Feb-28 08:40 009 1 gusting 9 12.8
2015-Feb-28 08:35 005 2 gusting 7 12.8
2015-Feb-28 08:30 021 5 gusting 9 12.8
2015-Feb-28 08:25 360 4 gusting 10 12.8
2015-Feb-28 08:20 340 2 gusting 8 12.8
2015-Feb-28 08:15 340 5 gusting 8 12.8
2015-Feb-28 08:10 321 5 gusting 7 12.8
2015-Feb-28 08:05 316 4 gusting 13 12.8
2015-Feb-28 08:00 338 6 gusting 13 12.8
2015-Feb-28 07:55 315 6 gusting 12 12.8
2015-Feb-28 07:50 360 7 gusting 12 12.8
2015-Feb-28 07:45 355 3 gusting 12 12.8
2015-Feb-28 07:40 345 6 gusting 11 12.8
2015-Feb-28 07:35 005 6 gusting 11 12.8
2015-Feb-28 07:30 322 6 gusting 8 12.8
2015-Feb-28 07:25 319 4 gusting 8 12.2
2015-Feb-28 07:20 337 6 gusting 9 12.2
2015-Feb-28 07:15 321 6 gusting 9 12.2
2015-Feb-28 07:10 325 3 gusting 8 12.2
2015-Feb-28 07:05 360 5 gusting 8 12.2
2015-Feb-28 07:00 323 5 gusting 11 12.2
2015-Feb-28 06:55 333 6 gusting 11 12.2
2015-Feb-28 06:50 355 4 gusting 9 12.2
2015-Feb-28 06:45 019 6 gusting 9 12.2
2015-Feb-28 05:50 343 6 gusting 13 12.2
2015-Feb-28 05:45 322 6 gusting 11 12.2
2015-Feb-28 05:40 344 6 gusting 11 12.2
2015-Feb-28 05:35 329 6 gusting 13 12.2
2015-Feb-28 05:30 335 8 gusting 13 12.2
2015-Feb-28 05:25 318 6 gusting 8 12.2
2015-Feb-28 05:20 348 6 gusting 11 12.2
2015-Feb-28 05:15 335 6 gusting 11 12.2
2015-Feb-28 05:10 339 6 gusting 12 12.2
2015-Feb-28 05:05 336 6 gusting 12 12.2
2015-Feb-28 05:00 312 6 gusting 11 12.2
2015-Feb-28 04:55 333 6 gusting 10 12.2
2015-Feb-28 04:50 337 6 gusting 10 12.2
2015-Feb-28 04:45 351 6 gusting 11 12.2
2015-Feb-28 04:40 350 4 gusting 11 12.2
2015-Feb-28 04:35 334 6 gusting 10 12.2
2015-Feb-28 04:30 360 4 gusting 8 11.7
2015-Feb-28 04:25 017 5 gusting 8 11.7
2015-Feb-28 04:20 343 5 gusting 7 11.7
2015-Feb-28 04:15 360 1 gusting 10 11.7
2015-Feb-28 04:10 355 6 gusting 10 11.7
2015-Feb-28 04:05 335 6 gusting 10 11.7
2015-Feb-28 04:00 304 6 gusting 9 11.7
2015-Feb-28 03:55 005 6 gusting 9 11.7
2015-Feb-28 03:50 338 4 gusting 8 11.7
2015-Feb-28 03:45 340 4 gusting 9 11.7
2015-Feb-28 03:40 345 5 gusting 9 11.7
2015-Feb-28 03:35 326 2 gusting 8 11.7
2015-Feb-28 03:30 360 6 gusting 8 11.7
2015-Feb-28 03:25 347 6 gusting 8 11.7
2015-Feb-28 03:20 355 3 gusting 8 11.7
2015-Feb-28 03:15 355 4 gusting 8 11.7
2015-Feb-28 03:10 344 3 gusting 8 11.7
2015-Feb-28 03:05 355 4 gusting 9 11.7
2015-Feb-28 03:00 360 6 gusting 9 11.7
2015-Feb-28 02:55 341 5 gusting 8 11.7
2015-Feb-28 02:50 350 5 gusting 10 11.7
2015-Feb-28 02:45 355 4 gusting 10 11.7
2015-Feb-28 02:40 343 2 gusting 8 11.7
2015-Feb-28 02:35 334 4 gusting 8 11.7
2015-Feb-28 02:30 341 6 gusting 8 11.7
2015-Feb-28 02:25 355 4 gusting 8 11.7
2015-Feb-28 02:20 005 3 gusting 7 11.7
2015-Feb-28 02:15 360 4 gusting 7 11.7
2015-Feb-28 02:10 009 4 gusting 7 11.7
2015-Feb-28 02:05 350 4 gusting 6 11.7
2015-Feb-28 02:00 014 4 gusting 7 11.1
2015-Feb-28 01:55 348 5 gusting 7 11.1
2015-Feb-28 01:50 360 2 gusting 7 11.1
2015-Feb-28 01:45 355 5 gusting 8 11.1
2015-Feb-28 01:40 360 5 gusting 8 11.1
2015-Feb-28 01:35 020 2 gusting 7 11.1
2015-Feb-28 01:30 342 4 gusting 6 11.1
2015-Feb-28 01:25 360 2 gusting 7 11.1
2015-Feb-28 01:20 009 3 gusting 8 11.1
2015-Feb-28 01:15 360 5 gusting 10 11.1
2015-Feb-28 01:10 012 5 gusting 12 11.1
2015-Feb-28 01:05 355 6 gusting 12 11.1
2015-Feb-28 01:00 360 6 gusting 9 11.1
2015-Feb-28 00:55 335 5 gusting 7 11.1
2015-Feb-28 00:50 350 4 gusting 7 11.1
2015-Feb-28 00:45 355 5 gusting 9 11.1
2015-Feb-28 00:40 360 5 gusting 9 11.1
2015-Feb-28 00:35 005 5 gusting 9 11.1
2015-Feb-28 00:30 360 4 gusting 9 11.1
2015-Feb-28 00:25 355 6 gusting 8 11.1
2015-Feb-28 00:20 355 5 gusting 9 11.1
2015-Feb-28 00:15 360 3 gusting 9 11.1
2015-Feb-28 00:10 355 3 gusting 8 11.1
2015-Feb-28 00:05 013 6 gusting 8 11.1
2015-Feb-28 00:00 025 6 gusting 8 10.6
2015-Feb-27 23:55 017 3 gusting 8 10.6
2015-Feb-27 23:50 011 3 gusting 8 10.6
2015-Feb-27 23:45 005 4 gusting 9 10.6
2015-Feb-27 23:40 015 6 gusting 8 10.6
2015-Feb-27 23:35 360 6 gusting 9 10.6
2015-Feb-27 23:30 355 6 gusting 9 10.6
2015-Feb-27 23:25 015 6 gusting 9 10.6
2015-Feb-27 23:20 355 5 gusting 9 10.6
2015-Feb-27 23:15 028 6 gusting 9 10.6
2015-Feb-27 23:10 011 6 gusting 10 10.6
2015-Feb-27 23:05 009 5 gusting 10 10.6
2015-Feb-27 23:00 018 5 gusting 9 10.6
2015-Feb-27 22:55 017 6 gusting 9 10.6
2015-Feb-27 22:50 011 6 gusting 9 10.6
2015-Feb-27 22:45 038 5 gusting 10 10.6
2015-Feb-27 22:40 355 6 gusting 10 10.6
2015-Feb-27 22:35 341 7 gusting 11 10.6
2015-Feb-27 22:30 018 7 gusting 12 10.6
2015-Feb-27 22:25 336 7 gusting 12 10.6
2015-Feb-27 22:20 005 6 gusting 11 10.6
2015-Feb-27 22:15 355 5 gusting 11 10.6
2015-Feb-27 22:10 009 6 gusting 11 10.6
2015-Feb-27 22:05 012 6 gusting 11 10.6
2015-Feb-27 22:00 010 6 gusting 12 10.6
2015-Feb-27 21:55 012 7 gusting 14 10.6
2015-Feb-27 21:50 005 8 gusting 14 10.6
2015-Feb-27 21:45 019 8 gusting 13 10.6
2015-Feb-27 21:40 009 7 gusting 14 10.6
2015-Feb-27 21:35 018 9 gusting 14 10.6
2015-Feb-27 21:30 355 9 gusting 13 10.6
2015-Feb-27 21:25 015 7 gusting 13 10.6
2015-Feb-27 21:20 017 8 gusting 16 10.6
2015-Feb-27 21:15 009 9 gusting 16 10.6
2015-Feb-27 21:10 011 7 gusting 15 10.6
2015-Feb-27 21:05 032 9 gusting 15 10.6
2015-Feb-27 21:00 005 7 gusting 13 10.6
2015-Feb-27 20:55 005 7 gusting 13 10.6
2015-Feb-27 20:50 024 8 gusting 13 11.1
2015-Feb-27 20:45 011 9 gusting 13 11.1
2015-Feb-27 20:40 011 8 gusting 13 10.6
2015-Feb-27 20:35 351 7 gusting 13 10.6
2015-Feb-27 20:30 022 7 gusting 17 10.6
2015-Feb-27 20:25 351 8 gusting 17 10.6
2015-Feb-27 20:20 011 7 gusting 14 10.6
2015-Feb-27 20:10 360 8 gusting 15 11.1
2015-Feb-27 20:05 029 8 gusting 13 11.1
2015-Feb-27 20:00 355 9 gusting 13 11.1
2015-Feb-27 19:55 024 7 gusting 15 11.1
2015-Feb-27 19:50 348 8 gusting 16 11.1
2015-Feb-27 19:45 360 9 gusting 16 11.1
2015-Feb-27 19:40 005 9 gusting 17 11.1
2015-Feb-27 19:35 005 9 gusting 17 11.1
2015-Feb-27 19:30 355 10 gusting 16 11.1
2015-Feb-27 19:25 026 11 gusting 18 11.1
2015-Feb-27 19:20 009 11 gusting 18 11.1
2015-Feb-27 19:15 030 6 gusting 15 11.1
2015-Feb-27 19:10 015 9 gusting 16 11.1
2015-Feb-27 19:05 022 8 gusting 16 11.1
2015-Feb-27 19:00 014 9 gusting 14 11.1
2015-Feb-27 18:55 005 9 gusting 14 11.1
2015-Feb-27 18:50 009 6 gusting 14 11.1
2015-Feb-27 18:45 024 7 gusting 15 11.1
2015-Feb-27 18:40 026 10 gusting 18 11.1
2015-Feb-27 18:35 025 10 gusting 15 11.1
2015-Feb-27 18:30 028 9 gusting 15 11.1
2015-Feb-27 18:25 015 8 gusting 15 11.1
2015-Feb-27 18:20 026 10 gusting 18 11.1
2015-Feb-27 18:15 035 10 gusting 18 11.1
2015-Feb-27 18:10 347 7 gusting 18 11.7
2015-Feb-27 18:05 019 8 gusting 20 11.7
2015-Feb-27 18:00 025 13 gusting 20 11.7
2015-Feb-27 17:55 041 12 gusting 19 11.7
2015-Feb-27 17:50 360 12 gusting 20 11.7
2015-Feb-27 17:45 036 13 gusting 20 11.7
2015-Feb-27 17:40 018 12 gusting 18 11.7
2015-Feb-27 17:35 343 12 gusting 19 11.7
2015-Feb-27 17:30 005 12 gusting 19 11.7
2015-Feb-27 17:25 360 10 gusting 20 12.2
2015-Feb-27 17:20 355 13 gusting 21 12.2
2015-Feb-27 17:15 360 12 gusting 23 12.2
2015-Feb-27 17:10 014 12 gusting 23 12.2
2015-Feb-27 17:05 027 14 gusting 19 12.2
2015-Feb-27 17:00 024 9 gusting 18 12.2
2015-Feb-27 16:55 020 10 gusting 18 12.2
2015-Feb-27 16:50 360 10 gusting 18 12.2
2015-Feb-27 16:45 012 10 gusting 17 12.2
2015-Feb-27 16:40 360 10 gusting 18 12.8
2015-Feb-27 16:35 311 9 gusting 19 12.8
2015-Feb-27 16:30 011 11 gusting 19 12.8
2015-Feb-27 16:25 005 11 gusting 20 12.8
2015-Feb-27 16:20 342 10 gusting 20 12.8
2015-Feb-27 16:15 023 13 gusting 19 13.3
2015-Feb-27 16:10 037 15 gusting 19 12.8
2015-Feb-27 16:05 005 12 gusting 21 13.3
2015-Feb-27 16:00 032 15 gusting 19 13.3
2015-Feb-27 15:55 030 12 gusting 20 13.3
2015-Feb-27 15:50 005 13 gusting 21 13.3
2015-Feb-27 15:45 005 14 gusting 23 13.9
2015-Feb-27 15:40 014 9 gusting 19 13.9
2015-Feb-27 15:35 005 13 gusting 22 13.3
2015-Feb-27 15:30 355 14 gusting 25 13.3
2015-Feb-27 15:25 012 14 gusting 23 13.3
2015-Feb-27 15:20 029 13 gusting 22 13.3
2015-Feb-27 15:15 009 12 gusting 25 13.3
2015-Feb-27 15:10 360 19 gusting 25 13.3
2015-Feb-27 15:05 344 15 gusting 21 13.3
2015-Feb-27 15:00 031 12 gusting 19 13.9
2015-Feb-27 14:55 005 9 gusting 21 13.9
2015-Feb-27 14:50 042 11 gusting 22 13.3
2015-Feb-27 14:45 009 15 gusting 22 13.3
2015-Feb-27 14:40 321 12 gusting 23 13.3
2015-Feb-27 14:35 005 15 gusting 23 13.9
2015-Feb-27 14:30 022 14 gusting 20 13.9
2015-Feb-27 14:25 020 13 gusting 20 13.3
2015-Feb-27 14:20 026 10 gusting 21 13.3
2015-Feb-27 14:15 360 14 gusting 21 13.3
2015-Feb-27 14:10 014 14 gusting 21 13.3
2015-Feb-27 14:05 017 10 gusting 20 13.9
2015-Feb-27 14:00 348 9 gusting 21 13.9
2015-Feb-27 13:55 348 13 gusting 21 13.9
2015-Feb-27 13:50 019 13 gusting 20 13.9
2015-Feb-27 13:45 342 13 gusting 20 13.3
2015-Feb-27 13:40 013 12 gusting 20 13.3
2015-Feb-27 13:35 032 14 gusting 24 13.3
2015-Feb-27 13:30 048 15 gusting 24 13.3
2015-Feb-27 13:25 026 13 gusting 22 13.3
2015-Feb-27 13:20 021 13 gusting 22 13.9
2015-Feb-27 13:15 014 11 gusting 19 13.3
2015-Feb-27 13:10 016 9 gusting 18 13.9
2015-Feb-27 13:05 031 13 gusting 22 13.9
2015-Feb-27 13:00 036 13 gusting 22 13.9
2015-Feb-27 12:55 032 14 gusting 19 13.9
2015-Feb-27 12:50 034 13 gusting 17 13.9
2015-Feb-27 12:45 338 9 gusting 19 13.3
2015-Feb-27 12:40 360 12 gusting 22 13.3
2015-Feb-27 12:35 355 13 gusting 22 13.3
2015-Feb-27 12:30 005 9 gusting 20 13.3
2015-Feb-27 12:25 005 8 gusting 22 13.3
2015-Feb-27 12:20 345 16 gusting 22 13.3
2015-Feb-27 12:15 042 9 gusting 19 13.3
2015-Feb-27 12:10 015 13 gusting 23 13.3
2015-Feb-27 12:05 035 13 gusting 23 13.3
2015-Feb-27 12:00 012 13 gusting 19 13.3
2015-Feb-27 11:55 021 11 gusting 19 13.3
2015-Feb-27 11:50 360 11 gusting 20 13.3
2015-Feb-27 11:45 015 13 gusting 20 12.8
2015-Feb-27 11:40 023 9 gusting 22 13.3
2015-Feb-27 11:35 355 13 gusting 22 13.3
2015-Feb-27 11:30 009 13 gusting 21 12.8
2015-Feb-27 11:25 360 13 gusting 25 13.3
2015-Feb-27 11:20 028 14 gusting 25 13.3
2015-Feb-27 11:15 360 15 gusting 23 13.3
2015-Feb-27 11:10 360 10 gusting 19 13.3
2015-Feb-27 11:05 027 13 gusting 24 13.3
2015-Feb-27 11:00 028 18 gusting 24 12.8
2015-Feb-27 10:55 026 12 gusting 20 12.8
2015-Feb-27 10:50 032 14 gusting 22 12.8
2015-Feb-27 10:45 035 16 gusting 25 12.8
2015-Feb-27 10:40 009 13 gusting 25 12.8
2015-Feb-27 10:35 360 13 gusting 24 12.8
2015-Feb-27 10:30 360 17 gusting 24 12.2
2015-Feb-27 10:25 018 13 gusting 22 12.8
2015-Feb-27 10:20 037 12 gusting 22 12.2
2015-Feb-27 10:15 013 14 gusting 22 12.8
2015-Feb-27 10:10 355 12 gusting 22 12.2
2015-Feb-27 10:05 015 11 gusting 22 12.2
2015-Feb-27 10:00 016 16 gusting 25 12.2
2015-Feb-27 09:55 038 13 gusting 25 12.2
2015-Feb-27 09:50 023 13 gusting 20 11.7
2015-Feb-27 09:45 360 13 gusting 24 11.7
2015-Feb-27 09:40 017 15 gusting 24 11.7
2015-Feb-27 09:35 017 11 gusting 17 11.7
2015-Feb-27 09:30 005 12 gusting 20 11.7
2015-Feb-27 09:25 026 12 gusting 20 11.7
2015-Feb-27 09:20 348 11 gusting 18 11.7
2015-Feb-27 09:15 360 10 gusting 19 11.7
2015-Feb-27 09:10 017 9 gusting 19 11.7
2015-Feb-27 09:05 026 9 gusting 17 11.7
2015-Feb-27 09:00 337 11 gusting 17 11.7
2015-Feb-27 08:55 024 11 gusting 18 11.7
2015-Feb-27 08:50 015 11 gusting 19 11.7
2015-Feb-27 08:45 024 9 gusting 19 11.7
2015-Feb-27 08:40 024 12 gusting 19 11.7
2015-Feb-27 08:35 034 8 gusting 19 11.1
2015-Feb-27 08:30 005 11 gusting 19 11.1
2015-Feb-27 08:25 020 10 gusting 19 11.1
2015-Feb-27 08:20 015 8 gusting 15 11.1
2015-Feb-27 08:15 040 10 gusting 15 11.1
2015-Feb-27 08:10 035 6 gusting 13 11.1
2015-Feb-27 08:05 018 8 gusting 15 11.1
2015-Feb-27 08:00 351 10 gusting 15 11.1
2015-Feb-27 07:55 005 8 gusting 16 11.1
2015-Feb-27 07:50 025 7 gusting 16 11.1
2015-Feb-27 07:45 005 9 gusting 15 11.1
2015-Feb-27 07:40 012 9 gusting 17 11.1
2015-Feb-27 07:35 342 11 gusting 18 11.1
2015-Feb-27 07:30 014 11 gusting 18 11.1
2015-Feb-27 07:25 005 10 gusting 17 11.1
2015-Feb-27 07:20 005 8 gusting 15 11.1
2015-Feb-27 02:15 005 5 gusting 11 12.2
2015-Feb-27 02:10 014 5 gusting 11 12.2
2015-Feb-27 02:05 347 6 gusting 11 12.2
2015-Feb-27 02:00 005 4 gusting 13 12.2
2015-Feb-27 01:55 336 6 gusting 13 12.2
2015-Feb-27 01:50 349 7 gusting 13 12.2
2015-Feb-27 01:45 013 9 gusting 13 12.2
2015-Feb-27 01:40 346 8 gusting 13 12.2
2015-Feb-27 01:35 348 6 gusting 13 12.2
2015-Feb-27 01:30 337 7 gusting 13 12.2
2015-Feb-27 01:25 343 8 gusting 11 12.2
2015-Feb-27 01:20 306 6 gusting 10 12.2
2015-Feb-27 01:15 310 1 gusting 7 12.2
2015-Feb-27 01:10 319 4 gusting 6 12.2
2015-Feb-27 01:05 317 0 gusting 6 12.2
2015-Feb-27 01:00 296 1 gusting 6 12.2
2015-Feb-27 00:55 327 1 gusting 7 12.2
2015-Feb-27 00:50 328 1 gusting 7 12.2
2015-Feb-27 00:45 341 2 gusting 6 12.2
2015-Feb-27 00:40 317 1 gusting 6 12.2
2015-Feb-27 00:35 320 2 gusting 6 12.2
2015-Feb-27 00:30 331 2 gusting 7 12.2
2015-Feb-27 00:25 327 5 gusting 7 12.2
2015-Feb-27 00:20 329 4 gusting 6 12.2
2015-Feb-27 00:15 331 12.2
2015-Feb-27 00:10 335 4 gusting 7 12.2
2015-Feb-27 00:05 005 4 gusting 8 12.8
2015-Feb-27 00:00 005 4 gusting 8 12.8